Weather History for Klawock, AK

Change the Weather History Date:

Tuesday, December 4, 2012

  Actual Average Record
Temperature  
Mean Temperature 34 °F -  
Max Temperature 37 °F 39 °F 53 °F (2005)
Min Temperature 32 °F 32 °F 16 °F (2007)
Degree Days  
Heating Degree Days 30    
Moisture  
Dew Point 33 °F    
Average Humidity 95    
Maximum Humidity 100    
Minimum Humidity 92    
Precipitation  
Precipitation 0.06 in - - ()
Sea Level Pressure  
Sea Level Pressure 29.20 in    
Wind  
Wind Speed 3 mph (NE)    
Max Wind Speed 9 mph    
Max Gust Speed -    
Visibility 9 miles    
Events Rain , Snow    
Averages and records for this station are not official NWS values.
T = Trace of Precipitation, MM = Missing Value Source: NWS Daily Summary

Daily Weather History Graph

Daily Weather History Graph

Search for Another Location

Airport:

Trip Planner

Search our weather history database for the weather conditions in past years. The results will help you decide how hot, cold, wet, or windy it might be!

Date:

Astronomy

Dec. 04, 2012 Rise Set
Actual Time 8:02 AM AKST 3:22 PM AKST
Civil Twilight 7:17 AM AKST 4:08 PM AKST
Nautical Twilight 6:29 AM AKST 4:55 PM AKST
Astronomical Twilight 5:44 AM AKST 5:40 PM AKST
Moon 10:02 PM AKST (12/4) 11:20 AM AKST (12/4)
Length of Visible Light 8h 51m
Length of Day
7h 20m
Waning Gibbous, 68% of the Moon is Illuminated
Dec 4
Waning Gibbous
Dec 6
Last Quarter
Dec 12
New
Dec 19
First Quarter
Dec 28
Full

Hourly Weather History & Observations

Time (AKST) Temp. Windchill Dew Point Humidity Pressure Visibility Wind Dir Wind Speed Gust Speed Precip Events Conditions
12:53 AM 35.1 °F 28.6 °F 34.0 °F 96% 29.13 in 10.0 mi NNE 8.1 mph - N/A   Mostly Cloudy
1:24 AM 35.6 °F 28.6 °F 33.8 °F 93% 29.12 in 10.0 mi NNE 9.2 mph - N/A   Mostly Cloudy
1:53 AM 35.1 °F - 34.0 °F 96% 29.12 in 10.0 mi Calm Calm - N/A   Mostly Cloudy
3:12 AM 33.8 °F 29.6 °F 32.0 °F 93% 29.09 in 10.0 mi NE 4.6 mph - N/A   Scattered Clouds
3:53 AM 34.0 °F - 32.0 °F 92% 29.08 in 10.0 mi Calm Calm - N/A   Scattered Clouds
4:53 AM 34.0 °F 28.0 °F 32.0 °F 92% 29.06 in 10.0 mi ENE 6.9 mph - N/A   Scattered Clouds
5:53 AM 34.0 °F 29.8 °F 32.0 °F 92% 29.05 in 10.0 mi ENE 4.6 mph - N/A   Mostly Cloudy
6:53 AM 33.1 °F - 32.0 °F 96% 29.04 in 10.0 mi Calm Calm - N/A   Overcast
7:53 AM 33.1 °F - 30.9 °F 92% 29.05 in 10.0 mi Calm Calm - N/A   Overcast
8:53 AM 32.0 °F - 30.0 °F 92% 29.07 in 10.0 mi Calm Calm - N/A   Partly Cloudy
9:53 AM 32.0 °F - 30.9 °F 96% 29.11 in 10.0 mi Calm Calm - N/A   Partly Cloudy
10:02 AM 32.0 °F - 30.2 °F 93% 29.11 in 2.5 mi Calm Calm - N/A   Scattered Clouds
10:04 AM 32.0 °F - 30.2 °F 93% 29.11 in 1.2 mi Calm Calm - N/A   Scattered Clouds
10:18 AM 32.0 °F - 32.0 °F 100% 29.12 in 2.0 mi Calm Calm - N/A   Mostly Cloudy
10:28 AM 33.8 °F - 32.0 °F 93% 29.13 in 10.0 mi Calm Calm - N/A   Overcast
10:53 AM 34.0 °F - 32.0 °F 92% 29.14 in 10.0 mi Calm Calm - N/A   Overcast
11:11 AM 35.6 °F - 33.8 °F 93% 29.15 in 10.0 mi Calm Calm - N/A   Overcast
11:18 AM 35.6 °F - 33.8 °F 93% 29.15 in 10.0 mi Calm Calm - N/A   Overcast
11:31 AM 35.6 °F - 33.8 °F 93% 29.15 in 10.0 mi Calm Calm - N/A   Overcast
11:53 AM 36.0 °F - 35.1 °F 97% 29.17 in 10.0 mi Calm Calm - N/A   Mostly Cloudy
12:12 PM 35.6 °F - 35.6 °F 100% 29.18 in 10.0 mi Calm Calm - N/A   Overcast
12:20 PM 37.4 °F - 35.6 °F 93% 29.18 in 10.0 mi Calm Calm - N/A   Overcast
12:53 PM 37.9 °F - 36.0 °F 93% 29.20 in 10.0 mi Calm Calm - N/A   Scattered Clouds
1:51 PM 35.6 °F 30.7 °F 35.6 °F 100% 29.22 in 8.0 mi WSW 5.8 mph - 0.01 in Rain Light Rain
1:58 PM 35.6 °F 30.7 °F 33.8 °F 93% 29.23 in 1.8 mi SW 5.8 mph - 0.02 in Rain Heavy Rain
2:06 PM 35.6 °F 32.8 °F 33.8 °F 93% 29.23 in 3.0 mi SSW 3.5 mph - 0.04 in Snow Light Snow
2:36 PM 33.8 °F - 33.8 °F 100% 29.24 in 10.0 mi Calm Calm - 0.06 in   Mostly Cloudy
2:53 PM 34.0 °F - 33.1 °F 96% 29.25 in 10.0 mi Calm Calm - 0.06 in   Mostly Cloudy
3:53 PM 34.0 °F 29.8 °F 33.1 °F 96% 29.27 in 10.0 mi NE 4.6 mph - N/A   Overcast
4:23 PM 33.8 °F - 33.8 °F 100% 29.28 in 10.0 mi Calm Calm - N/A   Overcast
4:53 PM 34.0 °F 31.0 °F 33.1 °F 96% 29.29 in 10.0 mi North 3.5 mph - 0.00 in Rain Light Rain
5:53 PM 33.1 °F - 32.0 °F 96% 29.31 in 10.0 mi Calm Calm - N/A   Overcast
6:53 PM 33.1 °F 30.0 °F 32.0 °F 96% 29.32 in 10.0 mi NNE 3.5 mph - N/A   Mostly Cloudy
7:23 PM 33.8 °F - 32.0 °F 93% 29.33 in 10.0 mi Calm Calm - N/A   Mostly Cloudy
7:50 PM 33.8 °F - 32.0 °F 93% 29.33 in 10.0 mi Calm Calm - N/A   Overcast
7:53 PM 34.0 °F - 32.0 °F 92% 29.34 in 10.0 mi Calm Calm - N/A   Overcast
8:53 PM 34.0 °F 31.0 °F 32.0 °F 92% 29.35 in 10.0 mi ENE 3.5 mph - N/A   Overcast
9:53 PM 34.0 °F - 32.0 °F 92% 29.38 in 10.0 mi Calm Calm - N/A   Mostly Cloudy
10:53 PM 33.1 °F - 32.0 °F 96% 29.40 in 10.0 mi Calm Calm - N/A   Overcast
11:18 PM 33.8 °F 30.8 °F 32.0 °F 93% 29.40 in 10.0 mi ENE 3.5 mph - 0.00 in Rain Light Rain
11:53 PM 34.0 °F - 33.1 °F 96% 29.42 in 8.0 mi Calm Calm - 0.00 in Snow Light Snow